Location: Marcé
(47.5801°N, 0.3280°W)
Time: 13:27:31
(UTC+02:00)

Tiangong - Visible Passes

Search period start: 23 October 2021 00:00
Search period end: 01 November 2021 23:00
Orbit: 381 x 390 km, 41.5° (Epoch: 23 October)

Date Brightness Start Highest point End Pass type
(mag) Time Alt. Az. Time Alt. Az. Time Alt. Az.
23 Oct 2.8 19:43:37 10° SW 19:46:19 25° S 19:49:01 10° ESE visible
23 Oct 3.6 21:20:03 10° WSW 21:21:19 18° SW 21:21:19 18° SW visible
24 Oct 2.7 20:20:45 10° WSW 20:23:30 26° S 20:24:45 20° SSE visible
25 Oct 3.3 20:58:15 10° WSW 21:00:25 19° SSW 21:00:25 19° SSW visible
26 Oct 3.0 19:58:47 10° WSW 20:01:25 23° S 20:03:54 11° SE visible
27 Oct 3.6 20:36:35 10° WSW 20:38:27 15° SSW 20:39:41 12° S visible
28 Oct 3.5 19:36:52 10° WSW 19:39:15 19° SSW 19:41:36 10° SSE visible
30 Oct 4.0 19:15:09 10° WSW 19:16:58 14° SSW 19:18:48 10° SSE visible
